Regional Weather Roundup
Issued by NWS

Home | Current Version | Previous Version | Graphics & Text | Print | Product List | Glossary On
Versions: 1 2 3 4 5 6 7 8 9 10 11 12 13 14 15 16 17 18 19 20 21 22 23 24 25 26 27 28 29 30 31 32 33 34 35 36 37 38 39 40 41 42 43 44 45 46 47 48 49 50
000
ASUS43 KLSX 271559
RWRMO

WEATHER SUMMARY FOR MISSOURI
NATIONAL WEATHER SERVICE SPRINGFIELD MO
1000 AM CST SAT DEC 27 2014

NOTE: "FAIR" INDICATES FEW OR NO CLOUDS BELOW 12,000 FEET WITH NO
       SIGNIFICANT WEATHER AND/OR OBSTRUCTIONS TO VISIBILITY.
       CURRENT SKY AND/OR WEATHER CONDITIONS ARE NOT AVAILABLE FOR
       CHILLICOTHE AND FARMINGTON.

MOZ001>031-035>038-043-044-053-054-271700-
...NORTHERN AND WESTERN MISSOURI...

CITY           SKY/WX    TMP DP  RH WIND       PRES   REMARKS
KANSAS CTY INT CLOUDY    29  24  82 NW12      30.24R WCI  19
KANSAS C DTWN  CLOUDY    32  24  72 NW10      30.25R WCI  24
LEE`S SUMMIT   CLOUDY    31  25  78 W12       30.22R WCI  22
ST JOSEPH      CLOUDY    29  22  75 NW12      30.28R WCI  19
CHILLICOTHE      N/A     33  26  75 W8G20     30.25R WCI  26
KIRKSVILLE     CLOUDY    35  30  82 W8        30.18F WCI  29

$$
MOZ066>068-077>081-088>096-101>105-271700-
...SOUTHWEST MISSOURI...

CITY           SKY/WX    TMP DP  RH WIND       PRES   REMARKS
SPRINGFIELD    CLOUDY    35  32  88 NW8       30.23R WCI  29
JOPLIN         LGT SNOW  32  31  96 NW7       30.30R VSB 3/4 WCI  26

$$
MOZ032>034-039>042-045>050-055>058-069>072-271700-
...CENTRAL MISSOURI...

CITY           SKY/WX    TMP DP  RH WIND       PRES   REMARKS
COLUMBIA       CLOUDY    37  31  78 W10       30.20S WCI  30
JEFFERSON CITY CLOUDY    39  31  72 W13       30.22R
ROLLA          CLOUDY    38  34  85 W9        30.19R
SEDALIA        LGT SNOW  35  32  88 NW8       30.22R FOG     WCI  29
WARRENSBURG    CLOUDY    34  30  86 NW7       30.21F WCI  28
OSAGE BEACH    CLOUDY    37  30  75 W8        30.21S

$$
MOZ051-052-059>065-271700-
...EAST CENTRAL MISSOURI...

CITY           SKY/WX    TMP DP  RH WIND       PRES   REMARKS
ST LOUIS INTL  LGT RAIN  45  40  82 NW9G22    30.17R
SPIRIT OF STL  CLOUDY    43  38  82 NW12G25   30.18R
ST CHARLES     CLOUDY    43  38  82 W18       30.18R

$$
MOZ072>076-082>087-097>100-106>115-271700-
...SOUTH CENTRAL AND SOUTHEAST MISSOURI...

CITY           SKY/WX    TMP DP  RH WIND       PRES   REMARKS
CAPE GIRARDEAU CLOUDY    49  48  97 SE7       30.15F FOG
FARMINGTON     CLOUDY    48  46  93 S7        30.16R
POPLAR BLUFF   LGT RAIN  50  48  93 SE5       30.14R FOG
WEST PLAINS    CLOUDY    43  41  93 NW12      30.19R

$$


USA.gov is the U.S. government's official web portal to all federal, state and local government web resources and services.